Location: Unspecified
(0.0000°N, 0.0000°E)
Time: 14:54:58
(UTC+00:00)

STARLINK-36845 - Pass Details

Date: 04 March 2026
Orbit: 266 x 267 km, 53.2° (Epoch: 6 March)

Event Time Altitude Azimuth Distance (km) Brightness Sun altitude
Rises 19:01:45 0° 218° (SW) 1,836 6.0 -12.5°
Reaches altitude 10° 19:03:38 10° 222° (SW) 1,037 4.8 -12.9°
Maximum altitude 19:05:53 60° 303° (WNW) 298 1.5 -13.5°
Enters shadow 19:07:13 21° 20° (NNE) 656 2.8 -13.8°
